Harrisburg, IL

2:58 PM CST on December 15, 2019 (GMT -0600)
Harrisburg-Raleigh

Weather History for KHSB - October, 2019

Change the Weather History Date:

Thursday, October 31, 2019

  Actual Average (KMWA) Record (KMWA)
Temperature  
Mean Temperature 36 °F -  
Max Temperature 45 °F 63 °F 83 °F (1968)
Min Temperature 26 °F 43 °F 23 °F (1980)
Degree Days  
Heating Degree Days 30    
Moisture  
Dew Point 30 °F    
Average Humidity 81    
Maximum Humidity 90    
Minimum Humidity 63    
Precipitation  
Precipitation 0.54 in - - ()
Sea Level Pressure  
Sea Level Pressure 30.09 in    
Wind  
Wind Speed 11 mph ()    
Max Wind Speed 24 mph    
Max Gust Speed 34 mph    
Visibility 8.5 miles    
Events Rain , Snow    
Averages and records for this station are not official NWS values.
T = Trace of Precipitation, MM = Missing Value Source: Averaged Metar Reports

Daily Weather History Graph

Daily Weather History Graph

Search for Another Location

Airport or City:

Astronomy

Oct. 31, 2019 Rise Set
Actual Time 7:18 AM CDT 5:56 PM CDT
Civil Twilight 6:51 AM CDT 6:23 PM CDT
Nautical Twilight 6:20 AM CDT 6:54 PM CDT
Astronomical Twilight 5:49 AM CDT 7:25 PM CDT
Moon 11:03 AM CDT (10/31) 8:56 PM CDT (10/31)
Length of Visible Light 11h 32m
Length of Day
10h 38m
Waxing Crescent, 16% of the Moon is Illuminated
Oct 31
Waxing Crescent
Nov 4
First Quarter
Nov 12
Full
Nov 19
Last Quarter
Nov 26
New

Hourly Weather History & Observations

Time (CDT) Temp. Windchill Dew Point Humidity Pressure Visibility Wind Dir Wind Speed Gust Speed Precip Events Conditions
12:15 AM 45.9 °F - 42.8 °F 89% 29.87 in 2.5 mi Calm Calm - N/A Rain Light Rain
12:35 AM 45.7 °F - 42.8 °F 90% 29.86 in 3.0 mi Calm Calm - N/A Rain Light Rain
12:55 AM 45.5 °F 41.3 °F 42.4 °F 89% 29.87 in 7.0 mi WNW 8.1 mph - 0.01 in Rain Rain
1:15 AM 43.7 °F 36.3 °F 40.6 °F 89% 29.89 in 2.5 mi WNW 16.1 mph 23.0 mph 0.01 in   Heavy Drizzle
1:35 AM 42.3 °F 35.1 °F 39.2 °F 89% 29.88 in 1.8 mi WNW 13.8 mph 23.0 mph 0.05 in Rain Light Rain
1:55 AM 41.9 °F 34.6 °F 38.7 °F 88% 29.89 in 7.0 mi WNW 13.8 mph 19.6 mph 0.10 in Rain Rain
2:15 AM 41.4 °F 35.2 °F 38.3 °F 89% 29.89 in 4.0 mi NW 10.4 mph 16.1 mph 0.05 in Rain Heavy Rain
2:35 AM 41.2 °F 35.0 °F 38.3 °F 89% 29.87 in 5.0 mi WNW 10.4 mph - 0.11 in Rain Heavy Rain
2:55 AM 41.0 °F 34.3 °F 38.1 °F 89% 29.89 in 3.0 mi WNW 11.5 mph - 0.17 in Rain Light Rain
3:15 AM 41.0 °F 35.2 °F 37.8 °F 88% 29.90 in 5.0 mi WNW 9.2 mph 18.4 mph 0.04 in Rain Rain
3:35 AM 40.5 °F 34.1 °F 37.4 °F 89% 29.87 in 7.0 mi WNW 10.4 mph - 0.08 in Rain Rain
3:55 AM 40.3 °F 33.4 °F 37.4 °F 89% 29.87 in 10.0 mi NW 11.5 mph 17.3 mph 0.09 in Rain Rain
4:15 AM 39.7 °F 30.9 °F 36.9 °F 89% 29.87 in 3.0 mi NW 17.3 mph 24.2 mph 0.05 in Rain Rain
4:35 AM 39.0 °F 29.0 °F 36.1 °F 89% 29.87 in 5.0 mi NW 20.7 mph 27.6 mph 0.12 in Rain Rain
4:55 AM 38.3 °F 30.5 °F 35.6 °F 90% 29.89 in 5.0 mi WNW 12.7 mph 19.6 mph 0.16 in Rain Light Rain
5:15 AM 37.6 °F 28.4 °F 34.7 °F 89% 29.89 in 10.0 mi WNW 16.1 mph 26.5 mph 0.01 in Rain Rain
5:35 AM 37.4 °F 27.5 °F 34.3 °F 89% 29.91 in 7.0 mi WNW 18.4 mph 26.5 mph 0.01 in   Overcast
5:55 AM 36.5 °F 26.3 °F 33.4 °F 89% 29.90 in 10.0 mi NW 18.4 mph 23.0 mph 0.01 in   Overcast
6:15 AM 36.1 °F 26.2 °F 32.9 °F 88% 29.91 in 10.0 mi WNW 17.3 mph 26.5 mph N/A   Overcast
6:35 AM 35.8 °F 26.1 °F 32.7 °F 89% 29.91 in 10.0 mi WNW 16.1 mph 25.3 mph N/A   Overcast
6:55 AM 35.6 °F 25.5 °F 32.5 °F 89% 29.93 in 10.0 mi WNW 17.3 mph 23.0 mph N/A   Overcast
7:15 AM 35.6 °F 25.5 °F 31.6 °F 85% 29.94 in 10.0 mi WNW 17.3 mph 27.6 mph N/A   Overcast
7:35 AM 35.6 °F 25.9 °F 31.6 °F 85% 29.95 in 10.0 mi WNW 16.1 mph 26.5 mph N/A   Overcast
7:55 AM 35.2 °F 25.8 °F 32.0 °F 88% 29.96 in 10.0 mi WNW 15.0 mph 29.9 mph N/A   Overcast
8:15 AM 34.0 °F 22.4 °F 31.5 °F 90% 29.97 in 2.0 mi WNW 20.7 mph 26.5 mph N/A Snow Light Snow
8:35 AM 34.9 °F 23.6 °F 30.7 °F 85% 29.98 in 10.0 mi WNW 20.7 mph 25.3 mph N/A   Overcast
8:55 AM 35.1 °F 24.8 °F 30.6 °F 84% 29.99 in 10.0 mi WNW 17.3 mph 25.3 mph N/A   Overcast
9:15 AM 35.2 °F 25.8 °F 30.0 °F 81% 30.00 in 10.0 mi WNW 15.0 mph 29.9 mph N/A   Overcast
9:35 AM 35.1 °F 24.8 °F 30.4 °F 83% 30.01 in 10.0 mi WNW 17.3 mph 25.3 mph N/A   Overcast
9:55 AM 34.7 °F 23.7 °F 29.7 °F 82% 30.02 in 10.0 mi WNW 19.6 mph 32.2 mph N/A   Overcast
10:15 AM 34.7 °F 23.1 °F 28.9 °F 79% 30.03 in 10.0 mi WNW 21.9 mph 27.6 mph N/A   Overcast
10:35 AM 34.7 °F 23.1 °F 29.1 °F 80% 30.04 in 10.0 mi WNW 21.9 mph 27.6 mph N/A   Overcast
10:55 AM 34.7 °F 23.4 °F 29.1 °F 80% 30.05 in 10.0 mi WNW 20.7 mph 31.1 mph N/A   Overcast
11:15 AM 35.6 °F 24.5 °F 29.5 °F 78% 30.06 in 10.0 mi WNW 20.7 mph 27.6 mph N/A   Overcast
11:35 AM 35.6 °F 25.2 °F 28.9 °F 77% 30.07 in 10.0 mi WNW 18.4 mph 24.2 mph N/A   Overcast
11:55 AM 35.6 °F 24.5 °F 28.2 °F 75% 30.07 in 10.0 mi WNW 20.7 mph 31.1 mph N/A   Overcast
12:15 PM 35.8 °F 23.9 °F 27.1 °F 71% 30.08 in 10.0 mi WNW 24.2 mph 32.2 mph N/A   Overcast
12:35 PM 36.0 °F 25.0 °F 27.1 °F 70% 30.09 in 10.0 mi West 20.7 mph 28.8 mph N/A   Overcast
12:55 PM 34.9 °F 22.7 °F 26.8 °F 72% 30.10 in 10.0 mi West 24.2 mph 34.5 mph N/A   Overcast
1:35 PM 34.9 °F 23.0 °F 25.9 °F 70% 30.12 in 10.0 mi West 23.0 mph 31.1 mph N/A   Overcast
1:55 PM 35.2 °F 25.4 °F 25.3 °F 67% 30.13 in 10.0 mi WNW 16.1 mph 31.1 mph N/A   Overcast
2:15 PM 35.1 °F 23.5 °F 24.6 °F 66% 30.14 in 10.0 mi WNW 21.9 mph 32.2 mph N/A   Overcast
2:35 PM 35.6 °F 24.8 °F 25.3 °F 66% 30.15 in 10.0 mi West 19.6 mph 26.5 mph N/A   Overcast
2:55 PM 35.4 °F 25.3 °F 25.7 °F 68% 30.16 in 10.0 mi WNW 17.3 mph 23.0 mph N/A   Overcast
3:15 PM 34.9 °F 23.6 °F 24.3 °F 65% 30.17 in 10.0 mi West 20.7 mph 31.1 mph N/A   Overcast
3:35 PM 35.4 °F 24.9 °F 23.9 °F 63% 30.18 in 10.0 mi WNW 18.4 mph 29.9 mph N/A   Overcast
3:55 PM 35.1 °F 24.5 °F 25.2 °F 67% 30.20 in 10.0 mi West 18.4 mph 25.3 mph N/A   Overcast
4:15 PM 34.7 °F 24.0 °F 25.3 °F 69% 30.21 in 10.0 mi WNW 18.4 mph 27.6 mph N/A   Overcast
4:35 PM 35.2 °F 25.8 °F 25.2 °F 67% 30.22 in 10.0 mi WNW 15.0 mph 19.6 mph N/A   Overcast
4:55 PM 35.1 °F 26.9 °F 24.4 °F 65% 30.23 in 10.0 mi West 11.5 mph 20.7 mph N/A   Overcast
5:15 PM 35.1 °F 25.5 °F 24.6 °F 66% 30.24 in 10.0 mi WNW 15.0 mph - N/A   Overcast
5:35 PM 34.9 °F 26.6 °F 24.3 °F 65% 30.24 in 10.0 mi West 11.5 mph - N/A   Overcast
5:55 PM 34.9 °F 27.7 °F 24.3 °F 65% 30.25 in 10.0 mi WNW 9.2 mph - N/A   Overcast
6:15 PM 34.7 °F 26.9 °F 24.6 °F 67% 30.26 in 10.0 mi WNW 10.4 mph 16.1 mph N/A   Overcast
6:35 PM 33.3 °F 27.9 °F 24.6 °F 71% 30.27 in 10.0 mi WNW 5.8 mph - N/A   Mostly Cloudy
6:55 PM 32.7 °F 28.3 °F 24.3 °F 71% 30.26 in 10.0 mi NW 4.6 mph - N/A   Clear
7:15 PM 32.2 °F 28.9 °F 24.8 °F 74% 30.27 in 10.0 mi WNW 3.5 mph - N/A   Clear
7:35 PM 31.8 °F 28.5 °F 25.0 °F 76% 30.29 in 10.0 mi WSW 3.5 mph - N/A   Clear
7:55 PM 30.0 °F 26.5 °F 25.7 °F 84% 30.30 in 10.0 mi WSW 3.5 mph - N/A   Clear
8:15 PM 30.6 °F - 26.2 °F 84% 30.30 in 10.0 mi Calm Calm - N/A   Clear
8:35 PM 29.1 °F - 25.7 °F 87% 30.30 in 10.0 mi Calm Calm - N/A   Clear
8:55 PM 29.5 °F 24.5 °F 26.6 °F 89% 30.32 in 10.0 mi SSW 4.6 mph - N/A   Clear
9:15 PM 28.9 °F - 25.9 °F 88% 30.32 in 10.0 mi Calm Calm - N/A   Clear
9:35 PM 28.9 °F - 26.1 °F 89% 30.32 in 10.0 mi Calm Calm - N/A   Clear
9:55 PM 28.9 °F - 26.2 °F 90% 30.33 in 10.0 mi Calm Calm - N/A   Clear
10:15 PM 28.2 °F - 25.3 °F 89% 30.33 in 7.0 mi Calm Calm - N/A   Clear
10:35 PM 28.4 °F - 25.7 °F 90% 30.33 in 10.0 mi Calm Calm - N/A   Clear
10:55 PM 28.2 °F - 25.3 °F 89% 30.33 in 10.0 mi Calm Calm - N/A   Clear
11:15 PM 27.9 °F - 25.2 °F 90% 30.33 in 7.0 mi Calm Calm - N/A   Clear
11:35 PM 26.4 °F - 23.7 °F 90% 30.33 in 5.0 mi Calm Calm - N/A   Clear
11:55 PM 26.4 °F - 23.7 °F 90% 30.33 in 7.0 mi Calm Calm - N/A   Clear